STARLINK-32183 (60433 NORAD) Tracking and Keplerian Element Data

This shows tracking and keplerian element data for the satellite.

Feedback or suggestion? Click here.




ElementValue
Catalog60433
NameSTARLINK-32183
Epoch Orbit1078
Epoch Day286.80635258
Epoch Year2024
RAAN79.4723
Inclination53.1622
Eccentricity0.0001142
Argument of Perigee107.4308
Mean Anonmoly252.6817
Mean Motion15.30187187
Decay Rate-3E-08
L11 60433U 24144J 24286.80635258 -.00000003 00000+0 12031-4 0 9994
L22 60433 53.1622 79.4723 0001142 107.4308 252.6817 15.30187187 10788



Live tracking and technical data element details for STARLINK-32183 (NORAD 60433). STARLINK-32183 can be tracked NOW for your location showing map with azimuth and elevation plus other details from your city location.







IsCatalogInMostPopularTable: catalog: 60433, numindb: 7
Update: records affected: 1



GetName: 60433 STARLINK-32183

Hit Count: updated at: Fri, 06 Dec 2024 11:08:47 GMT